SES-1

Last updated on Mon Oct 14 2024 00:02:38 GMT+0000 (Coordinated Universal Time)

1 36516U 10016A 24287.52767569 -.00000116 00000+0 00000+0 0 9996 2 36516 0.0210 300.4243 0002583 260.4760 270.6656 1.00270804 53007
UTC large
Height (km)
Speed (km/s)
/
Latitude / Longitude
Inclination (degrees)
Orbital Period (minutes)
Azimuth
Elevation
Range (km)
Doppler Factor

Next 0 passes for location: London (51.5072 / 0.1276)

Sorry there are no passes over London.